Weather in Kachkanar

Russia / Sverdlovsk Oblast     58°42′18″N   59°29′02″E
temp.,
°C
wind,
m/s
gust,
m/s
humid.,
%
clouds,
%
prec.,
mm/h
press.,
hPa
HPBL,
m
18 may, tue
tue1823:00+18w2256100 0.1 101328
02:00+17wnw2359100 0.0 101372
05:00+14nw26784 0.0 1014166
08:00+17nne446886 0.0 10151021
11:00+13nne3578100 0.2 1019618
14:00+12nne3675100 0.1 1020636
17:00+16nne3559100 0.1 1021973
20:00+14ne35570 0.0 10221150
19 may, wed
wed1923:00+9nne11780 0.0 102410
02:00+8n11830 0.0 102510
05:00+7nnw11875 0.0 102610
08:00+13ne11615 0.0 1026415
11:00+18e1143100 0.0 10261220
14:00+21e11345 0.0 10241687
17:00+22se113185 0.0 10231766
20:00+18sse2244100 0.0 102328
20 may, thu
thu2023:00+13sw225682 0.0 102319
02:00+12wsw226236 0.0 102316
05:00+11wsw226521 0.0 102326
08:00+18w26455 0.0 1023392
11:00+23w45315 0.0 10211416
14:00+25wnw34255 0.0 10201829
17:00+26wnw34230 0.0 10192027
20:00+22wnw11390 0.0 101912
21 may, fri
fri2123:00+16w21520 0.0 102011
02:00+14w21560 0.0 102011
05:00+14w11610 0.0 102010
08:00+20wsw11455 0.0 1019222
11:00+25ssw24280 0.0 10191788
14:00+27ssw35230 0.0 10172547
17:00+27ssw45220 0.0 10162643
20:00+23sw38340 0.0 1016390
22 may, sat
sat2223:00+16wsw22490 0.0 101714
02:00+14wsw22605 0.0 101715
05:00+15wsw237259 0.0 101872
08:00+19wsw386197 0.0 1017690
11:00+22sw694742 0.0 10172027
14:00+24wsw69325 0.0 10172545
17:00+24wsw693357 0.0 10172496
20:00+20w484590 0.0 1018902